EDT,Max TemperatureF,Mean TemperatureF,Min TemperatureF,Max Dew PointF,MeanDew PointF,Min DewpointF,Max Humidity, Mean Humidity, Min Humidity, Max Sea Level PressureIn, Mean Sea Level PressureIn, Min Sea Level PressureIn, Max VisibilityMiles, Mean VisibilityMiles, Min VisibilityMiles, Max Wind SpeedMPH, Mean Wind SpeedMPH, Max Gust SpeedMPH,PrecipitationIn, CloudCover, Events, WindDirDegrees
2012-10-1,66,58,50,57,52,50,100,94,64,29.92,29.75,29.67,10,10,10,13,10,23,0.18,6,Rain,267
2012-10-2,59,55,51,59,57,52,100,97,82,30.01,29.97,29.92,10,9,2,10,7,,0.12,7,Rain,125
2012-10-3,68,63,58,67,64,59,100,100,93,30.12,30.08,30.00,10,5,0,8,3,,0.00,8,Fog,107
2012-10-4,70,63,56,64,61,50,100,95,50,30.14,30.11,30.01,10,6,1,9,3,,0.00,5,,216
2012-10-5,66,60,55,61,57,53,97,86,68,30.01,29.93,29.88,10,10,8,14,8,24,0.04,6,Rain,225
2012-10-6,55,52,45,56,49,38,100,98,62,29.99,29.82,29.77,10,7,3,17,4,30,0.95,8,Rain,269
2012-10-7,51,43,35,43,39,31,100,86,46,30.09,30.06,29.98,10,10,8,6,3,,0.09,5,Rain,241
2012-10-8,54,45,37,42,39,37,100,80,53,30.25,30.21,30.09,10,10,10,9,4,,0.00,4,,196
2012-10-9,60,47,35,46,40,36,99,77,47,30.25,30.17,30.00,10,10,2,13,9,,0.00,2,,152
2012-10-10,58,50,44,50,47,37,100,89,61,29.99,29.81,29.72,10,9,4,21,12,28,0.11,5,Rain,238
2012-10-11,50,44,38,41,38,33,98,82,58,30.12,30.04,29.90,10,10,10,16,8,28,0.02,4,Rain,229
2012-10-12,47,38,27,46,37,21,100,88,44,30.44,30.14,29.96,10,10,7,15,8,22,0.09,4,Rain,303
2012-10-13,50,38,26,40,31,25,98,72,42,30.46,30.31,30.08,10,10,8,13,5,,0.18,4,Rain,168
2012-10-14,67,53,40,59,47,39,100,97,72,30.06,29.92,29.69,10,8,2,22,14,33,0.26,8,Rain,152
2012-10-15,65,55,45,59,53,37,100,89,71,29.69,29.62,29.52,10,10,7,23,16,33,0.05,7,Rain,241
2012-10-16,46,40,34,39,36,34,99,84,67,29.93,29.79,29.69,10,10,7,13,9,26,0.01,6,Rain,275
2012-10-17,63,49,35,45,40,36,100,71,45,29.96,29.90,29.86,10,8,2,14,6,,0.00,4,,144
2012-10-18,67,57,48,50,45,40,76,64,51,29.89,29.86,29.82,10,10,10,20,13,30,0.00,1,,154
2012-10-19,62,55,48,59,55,48,100,98,70,29.91,29.72,29.60,10,6,0,20,9,25,0.51,6,Fog-Rain,141
2012-10-20,58,52,46,58,50,42,100,93,63,29.73,29.67,29.59,10,9,2,15,9,22,0.26,7,Rain,212
2012-10-21,55,50,46,52,48,45,100,92,72,29.99,29.84,29.71,10,10,6,16,10,25,0.22,8,Rain,261
2012-10-22,59,52,43,52,47,43,100,86,66,30.10,30.06,30.00,10,10,7,13,7,17,0.00,3,,260
2012-10-23,54,46,39,47,44,40,100,88,74,30.16,30.12,30.10,10,10,10,10,4,,0.00,5,,63
2012-10-24,59,50,42,50,45,41,99,78,62,30.16,30.13,30.10,10,9,4,12,6,,0.00,7,,94
2012-10-25,78,64,51,61,54,48,95,82,51,30.16,30.11,30.05,10,10,10,20,10,21,0.00,4,,149
2012-10-26,74,64,55,60,57,54,96,82,56,30.10,30.07,30.04,10,10,10,20,14,,0.00,1,,151
2012-10-27,59,52,45,57,49,45,100,90,75,30.10,30.05,29.84,10,7,2,10,6,,0.00,8,,10
2012-10-28,43,42,41,45,42,41,100,100,100,30.07,30.00,29.90,10,3,0,14,8,,0.04,8,Fog-Rain,27
2012-10-29,56,50,42,48,43,39,100,77,55,29.90,29.52,29.21,10,8,2,41,19,52,0.06,8,Rain,41
2012-10-30,64,58,53,54,47,36,95,74,38,29.43,29.28,29.20,10,10,6,33,23,44,0.03,6,Rain,79
2012-10-31,49,45,41,46,40,35,100,84,64,29.48,29.44,29.41,10,10,8,12,5,,0.10,8,Rain,225